Lid_Strength_Index
0 6 4 6 9 11 13 12 9 10 9 6 5 7 7 6 8 11 2 1 0 0 -0 -0 -1 -1 -1 -1 -1 -1 -1 -1 -1 -1 -1 -1 -1 -1 -1 -1 -2 -2 -2 -2 -1 -1 -2 -2 -1
3 6 8 10 11 15 14 10 11 9 8 6 5 6 7 8 5 4 3 1 0 -0 -0 -0 -1 -1 -1 -1 -1 -1 -1 -1 -1 -1 -1 -1 -1 -1 -1 -1 -1 -1 -1 -1 -1 -1 -1 -1 -1
3 6 10 12 12 14 14 10 9 8 6 6 7 5 6 7 4 3 1 0 -0 -0 0 -0 -1 -1 -1 -1 -1 -1 -1 -1 -1 -1 -1 -1 -1 -1 -1 -1 -1 -1 -1 -1 -1 -1 -1 -1 -1
7 9 12 13 14 12 10 8 7 7 6 5 6 8 4 3 3 2 1 0 0 0 0 -1 -1 -1 -1 -1 -1 -1 -1 -1 -1 -1 -1 -1 -1 -1 -1 -1 -1 -1 -1 -1 -1 -1 -1 -1 -1
9 12 14 16 14 13 8 7 7 8 7 6 6 8 6 3 1 1 1 0 1 0 0 -0 -1 -1 -1 -1 -1 -1 -1 -1 -1 -1 -1 -1 -1 -1 -1 -1 -1 -1 -1 -1 -1 -1 -1 -1 -1
10 13 15 16 14 12 9 7 7 7 7 6 7 7 6 2 2 1 1 1 0 0 -0 -0 -1 -1 -1 -1 -1 -1 -1 -1 -1 -1 -1 -1 -1 -1 -1 -1 -1 -1 -1 -1 -1 -1 -1 -2 -2
11 14 15 14 13 13 9 7 8 8 7 7 5 8 6 4 2 1 1 0 0 -0 0 0 0 -1 -1 -1 -1 -1 -1 -1 -1 -1 -1 -1 -1 -1 -1 -1 -1 -1 -1 -1 -1 -1 -2 -2 -2
11 13 14 15 13 11 8 7 7 7 7 4 4 8 8 4 2 1 1 1 0 0 0 0 0 0 0 0 -1 -1 -1 -1 -1 -1 -1 -1 -1 -1 -1 -1 -2 -1 -1 -1 -2 -2 -2 -2 -2
11 14 15 14 12 10 8 8 6 5 6 5 4 4 3 2 2 2 2 2 1 1 0 0 -0 0 0 0 -0 -1 -1 -1 -1 -1 -1 -1 0 -0 -1 -1 -1 -1 -1 -1 -1 -1 -2 -2 -1
12 14 13 11 10 11 7 7 7 7 7 7 6 4 3 2 3 4 4 4 3 2 1 0 0 -0 0 -0 0 0 0 0 0 0 0 1 1 1 -1 -1 -1 -1 -1 -1 -1 -1 -1 -1 -0
13 13 12 10 10 9 7 7 6 7 9 6 6 5 4 3 4 4 3 3 3 2 1 0 0 0 0 0 0 -0 0 1 0 0 1 1 0 1 0 0 0 0 -1 -0 -0 -0 -0 0 -0
14 12 11 11 10 11 8 6 7 7 6 4 4 4 4 4 4 4 4 3 3 2 1 1 0 0 0 0 0 0 0 0 0 1 1 1 1 0 0 0 0 0 0 0 0 -0 0 0 -0
14 12 11 11 12 11 9 7 7 7 4 4 4 4 4 4 4 3 3 2 2 2 2 1 0 0 0 1 0 0 0 0 0 0 0 0 0 0 0 1 1 0 0 0 0 0 0 1 1
11 12 11 12 11 11 10 9 7 6 5 5 4 5 5 4 4 3 3 3 2 2 2 1 1 0 0 0 0 0 0 0 0 1 0 0 0 1 1 1 1 1 0 0 1 1 1 1 1
11 12 11 12 11 11 10 11 10 7 7 5 5 5 4 4 3 3 3 3 2 2 2 1 1 1 2 1 1 2 2 1 2 1 1 1 0 1 1 2 2 2 1 2 1 2 2 1 1
11 14 15 12 11 10 11 13 10 9 7 7 7 6 5 5 4 3 3 2 3 2 2 1 1 2 3 2 2 2 2 2 2 2 2 1 1 1 1 1 1 1 2 2 3 3 3 2 2
13 15 15 13 11 11 11 13 10 8 6 7 7 6 6 5 4 4 3 2 3 3 2 2 2 1 2 2 1 1 2 2 1 1 2 1 1 0 0 1 0 1 1 2 2 2 2 4 4
15 15 13 13 10 11 12 11 10 9 7 8 7 7 6 6 5 4 3 2 2 2 1 1 1 1 1 0 0 0 2 2 2 2 2 1 1 0 1 1 2 2 3 3 3 3 3 4 4
11 12 12 11 9 11 11 11 9 10 8 8 8 7 7 6 4 4 3 2 2 2 2 2 2 1 1 1 2 2 3 3 3 3 3 2 2 2 2 1 2 3 3 4 3 3 4 4 5
11 12 12 11 9 11 11 11 10 10 7 8 8 7 7 6 5 5 4 4 3 3 3 3 2 2 2 2 2 3 3 3 4 3 3 2 2 2 3 3 3 3 3 3 3 3 4 4 4
12 13 12 12 10 10 11 12 12 10 8 7 7 7 6 6 6 6 5 5 4 4 4 4 4 3 3 3 3 3 3 4 5 5 4 3 3 3 3 3 3 3 4 4 4 3 3 4 3
13 10 10 11 13 15 12 16 13 12 10 8 8 7 7 6 5 6 6 6 5 5 5 4 4 4 3 3 4 4 4 4 4 5 4 4 3 3 3 4 5 5 5 5 4 4 3 2 3
11 9 11 11 13 15 14 15 13 12 12 9 8 8 7 6 6 6 6 6 5 5 5 5 4 4 4 4 3 4 4 4 5 5 6 5 6 4 5 5 7 7 5 5 3 2 3 2 3
9 10 12 13 15 17 14 14 14 13 11 11 8 7 7 6 5 5 5 4 5 6 6 5 5 5 4 4 4 4 4 6 7 6 7 6 6 6 6 4 4 3 3 4 4 3 3 3 4
10 13 16 17 17 17 13 15 13 11 10 9 7 7 7 6 6 5 5 4 5 5 5 5 5 6 6 6 6 6 5 6 7 7 7 6 4 4 4 4 4 4 4 4 5 5 5 5 4
12 12 16 19 18 15 14 16 12 9 8 9 7 6 6 6 5 5 4 4 5 5 5 6 6 6 7 6 6 6 4 4 4 5 4 4 4 4 4 5 5 5 5 4 5 5 5 5 4
11 14 12 15 15 17 15 13 11 10 9 7 8 7 7 6 6 5 5 5 5 5 5 5 5 5 5 5 4 5 5 5 5 4 5 5 4 4 5 6 6 6 6 6 7 7 6 5 4
10 9 13 16 19 19 16 16 14 12 10 8 9 8 7 6 6 5 5 6 6 6 5 5 5 5 5 5 4 5 5 5 5 5 5 6 6 6 6 6 6 6 6 6 7 7 6 5 6
11 13 13 13 15 16 17 15 13 12 11 9 9 8 7 7 6 5 6 6 5 4 4 5 5 5 5 5 5 5 5 5 5 5 6 6 6 6 6 5 6 6 6 6 7 7 5 6 7
11 13 14 17 17 16 17 16 11 10 10 8 9 8 7 6 5 6 6 5 4 5 4 5 5 4 5 5 4 4 5 5 5 5 6 6 6 6 6 6 5 5 6 6 6 5 6 7 7